Time,TemperatureF,DewpointF,PressureIn,WindDirection,WindDirectionDegrees,WindSpeedMPH,WindSpeedGustMPH,Humidity,HourlyPrecipIn,Conditions,Clouds,dailyrainin,SoftwareType,DateUTC
2013-03-05 00:02:00,65.0,-99.9,29.81,SSE,165,22.0,26.0,-999,-99.99,,,-99.99,,2013-03-05 06:02:00,
2013-03-05 00:11:00,65.0,-99.9,29.80,SSE,166,23.0,25.0,-999,-99.99,,,-99.99,,2013-03-05 06:11:00,
2013-03-05 00:22:00,65.0,-99.9,29.80,SSE,166,23.0,26.0,-999,-99.99,,,-99.99,,2013-03-05 06:22:00,
2013-03-05 00:32:00,65.0,-99.9,29.80,SSE,167,22.0,26.0,-999,-99.99,,,-99.99,,2013-03-05 06:32:00,
2013-03-05 00:42:00,65.0,-99.9,29.80,SSE,166,21.0,26.0,-999,-99.99,,,-99.99,,2013-03-05 06:42:00,
2013-03-05 00:52:00,65.0,-99.9,29.80,South,172,23.0,26.0,-999,-99.99,,,-99.99,,2013-03-05 06:52:00,
2013-03-05 01:01:00,65.0,-99.9,29.80,South,171,23.0,25.0,-999,-99.99,,,-99.99,,2013-03-05 07:01:00,
2013-03-05 01:11:00,65.0,-99.9,29.80,South,172,23.0,26.0,-999,-99.99,,,-99.99,,2013-03-05 07:11:00,
2013-03-05 01:22:00,65.0,-99.9,29.79,South,172,24.0,29.0,-999,-99.99,,,-99.99,,2013-03-05 07:22:00,
2013-03-05 01:32:00,65.0,-99.9,29.79,South,172,24.0,28.0,-999,-99.99,,,-99.99,,2013-03-05 07:32:00,
2013-03-05 01:42:00,65.0,-99.9,29.79,South,172,24.0,29.0,-999,-99.99,,,-99.99,,2013-03-05 07:42:00,
2013-03-05 01:52:00,65.0,-99.9,29.79,South,172,25.0,27.0,-999,-99.99,,,-99.99,,2013-03-05 07:52:00,
2013-03-05 02:02:00,65.0,-99.9,29.79,South,174,25.0,28.0,-999,-99.99,,,-99.99,,2013-03-05 08:02:00,
2013-03-05 02:11:00,65.0,-99.9,29.78,South,173,26.0,29.0,-999,-99.99,,,-99.99,,2013-03-05 08:11:00,
2013-03-05 02:21:00,66.0,-99.9,29.78,South,173,24.0,29.0,-999,-99.99,,,-99.99,,2013-03-05 08:21:00,
2013-03-05 02:32:00,66.0,-99.9,29.79,South,174,24.0,28.0,-999,-99.99,,,-99.99,,2013-03-05 08:32:00,
2013-03-05 02:42:00,66.0,-99.9,29.79,South,175,24.0,26.0,-999,-99.99,,,-99.99,,2013-03-05 08:42:00,
2013-03-05 02:52:00,66.0,-99.9,29.79,South,174,23.0,25.0,-999,-99.99,,,-99.99,,2013-03-05 08:52:00,
2013-03-05 03:02:00,66.0,-99.9,29.79,South,173,22.0,26.0,-999,-99.99,,,-99.99,,2013-03-05 09:02:00,
2013-03-05 03:11:00,66.0,-99.9,29.80,South,174,22.0,25.0,-999,-99.99,,,-99.99,,2013-03-05 09:11:00,
2013-03-05 03:22:00,66.0,-99.9,29.80,South,173,21.0,24.0,-999,-99.99,,,-99.99,,2013-03-05 09:22:00,
2013-03-05 03:32:00,66.0,-99.9,29.80,South,174,21.0,23.0,-999,-99.99,,,-99.99,,2013-03-05 09:32:00,
2013-03-05 03:43:00,66.0,-99.9,29.80,South,173,21.0,25.0,-999,-99.99,,,-99.99,,2013-03-05 09:43:00,
2013-03-05 03:52:00,66.0,-99.9,29.80,South,174,22.0,24.0,-999,-99.99,,,-99.99,,2013-03-05 09:52:00,
2013-03-05 04:02:00,65.0,-99.9,29.79,South,169,22.0,26.0,-999,-99.99,,,-99.99,,2013-03-05 10:02:00,
2013-03-05 04:11:00,65.0,-99.9,29.79,South,169,23.0,25.0,-999,-99.99,,,-99.99,,2013-03-05 10:11:00,
2013-03-05 04:22:00,65.0,-99.9,29.79,South,173,23.0,26.0,-999,-99.99,,,-99.99,,2013-03-05 10:22:00,
2013-03-05 04:32:00,65.0,-99.9,29.79,South,174,23.0,26.0,-999,-99.99,,,-99.99,,2013-03-05 10:32:00,
2013-03-05 04:42:00,65.0,-99.9,29.79,South,172,23.0,26.0,-999,-99.99,,,-99.99,,2013-03-05 10:42:00,
2013-03-05 04:52:00,65.0,-99.9,29.79,South,174,23.0,26.0,-999,-99.99,,,-99.99,,2013-03-05 10:52:00,
2013-03-05 05:02:00,65.0,-99.9,29.80,South,173,22.0,26.0,-999,-99.99,,,-99.99,,2013-03-05 11:02:00,
2013-03-05 05:12:00,65.0,-99.9,29.80,South,172,23.0,25.0,-999,-99.99,,,-99.99,,2013-03-05 11:12:00,
2013-03-05 05:22:00,65.0,-99.9,29.80,South,172,22.0,25.0,-999,-99.99,,,-99.99,,2013-03-05 11:22:00,
2013-03-05 05:32:00,66.0,-99.9,29.80,South,171,22.0,25.0,-999,-99.99,,,-99.99,,2013-03-05 11:32:00,
2013-03-05 05:42:00,65.0,-99.9,29.81,South,173,22.0,24.0,-999,-99.99,,,-99.99,,2013-03-05 11:42:00,
2013-03-05 05:52:00,65.0,-99.9,29.82,South,174,20.0,23.0,-999,-99.99,,,-99.99,,2013-03-05 11:52:00,
2013-03-05 06:03:00,65.0,-99.9,29.82,South,173,20.0,22.0,-999,-99.99,,,-99.99,,2013-03-05 12:03:00,
2013-03-05 06:12:00,65.0,-99.9,29.82,South,173,20.0,22.0,-999,-99.99,,,-99.99,,2013-03-05 12:12:00,
2013-03-05 06:22:00,65.0,-99.9,29.83,South,173,19.0,22.0,-999,-99.99,,,-99.99,,2013-03-05 12:22:00,
2013-03-05 06:32:00,65.0,-99.9,29.84,South,176,18.0,21.0,-999,-99.99,,,-99.99,,2013-03-05 12:32:00,
2013-03-05 06:42:00,65.0,-99.9,29.85,South,182,17.0,18.0,-999,-99.99,,,-99.99,,2013-03-05 12:42:00,
2013-03-05 06:53:00,65.0,-99.9,29.85,South,184,17.0,19.0,-999,-99.99,,,-99.99,,2013-03-05 12:53:00,
2013-03-05 07:02:00,65.0,-99.9,29.85,South,183,17.0,19.0,-999,-99.99,,,-99.99,,2013-03-05 13:02:00,
2013-03-05 07:12:00,65.0,-99.9,29.86,South,190,15.0,18.0,-999,-99.99,,,-99.99,,2013-03-05 13:12:00,
2013-03-05 07:22:00,64.0,-99.9,29.97,NNW,345,13.0,36.0,-999,-99.99,,,-99.99,,2013-03-05 13:22:00,
2013-03-05 07:32:00,65.0,-99.9,29.98,NW,316,20.0,23.0,-999,-99.99,,,-99.99,,2013-03-05 13:32:00,
2013-03-05 07:42:00,66.0,-99.9,30.00,NW,322,10.0,21.0,-999,-99.99,,,-99.99,,2013-03-05 13:42:00,
2013-03-05 07:52:00,65.0,-99.9,30.00,NNW,334,15.0,21.0,-999,-99.99,,,-99.99,,2013-03-05 13:52:00,
2013-03-05 08:02:00,65.0,-99.9,30.00,North,351,13.0,20.0,-999,-99.99,,,-99.99,,2013-03-05 14:02:00,
2013-03-05 08:11:00,65.0,-99.9,29.99,North,353,14.0,20.0,-999,-99.99,,,-99.99,,2013-03-05 14:11:00,
2013-03-05 08:22:00,65.0,-99.9,30.01,North,359,17.0,19.0,-999,-99.99,,,-99.99,,2013-03-05 14:22:00,
2013-03-05 08:32:00,65.0,-99.9,30.01,North,4,15.0,17.0,-999,-99.99,,,-99.99,,2013-03-05 14:32:00,
2013-03-05 08:42:00,65.0,-99.9,30.02,North,8,13.0,15.0,-999,-99.99,,,-99.99,,2013-03-05 14:42:00,
2013-03-05 08:52:00,65.0,-99.9,30.02,North,8,11.0,17.0,-999,-99.99,,,-99.99,,2013-03-05 14:52:00,
2013-03-05 09:02:00,65.0,-99.9,30.03,North,10,15.0,16.0,-999,-99.99,,,-99.99,,2013-03-05 15:02:00,
2013-03-05 09:11:00,65.0,-99.9,30.03,NNE,12,16.0,17.0,-999,-99.99,,,-99.99,,2013-03-05 15:11:00,
2013-03-05 09:22:00,65.0,-99.9,30.04,NNE,23,12.0,15.0,-999,-99.99,,,-99.99,,2013-03-05 15:22:00,
2013-03-05 09:32:00,65.0,-99.9,30.05,North,358,28.0,39.0,-999,-99.99,,,-99.99,,2013-03-05 15:32:00,
2013-03-05 09:42:00,61.0,-99.9,30.07,North,356,29.0,36.0,-999,-99.99,,,-99.99,,2013-03-05 15:42:00,
2013-03-05 09:52:00,60.0,-99.9,30.08,North,352,32.0,38.0,-999,-99.99,,,-99.99,,2013-03-05 15:52:00,
2013-03-05 10:02:00,59.0,-99.9,30.09,North,353,32.0,36.0,-999,-99.99,,,-99.99,,2013-03-05 16:02:00,
2013-03-05 10:11:00,59.0,-99.9,30.10,North,358,31.0,37.0,-999,-99.99,,,-99.99,,2013-03-05 16:11:00,
2013-03-05 10:22:00,59.0,-99.9,30.11,North,351,33.0,37.0,-999,-99.99,,,-99.99,,2013-03-05 16:22:00,
2013-03-05 10:32:00,58.0,-99.9,30.11,North,1,27.0,38.0,-999,-99.99,,,-99.99,,2013-03-05 16:32:00,
2013-03-05 10:42:00,58.0,-99.9,30.12,North,3,27.0,34.0,-999,-99.99,,,-99.99,,2013-03-05 16:42:00,
2013-03-05 10:52:00,58.0,-99.9,30.13,North,356,31.0,36.0,-999,-99.99,,,-99.99,,2013-03-05 16:52:00,
2013-03-05 11:01:00,58.0,-99.9,30.14,North,358,25.0,34.0,-999,-99.99,,,-99.99,,2013-03-05 17:01:00,
2013-03-05 11:11:00,58.0,-99.9,30.14,North,355,27.0,33.0,-999,-99.99,,,-99.99,,2013-03-05 17:11:00,
2013-03-05 11:22:00,58.0,-99.9,30.15,North,356,25.0,31.0,-999,-99.99,,,-99.99,,2013-03-05 17:22:00,
2013-03-05 11:32:00,59.0,-99.9,30.15,North,1,30.0,35.0,-999,-99.99,,,-99.99,,2013-03-05 17:32:00,
2013-03-05 11:42:00,59.0,-99.9,30.15,North,4,27.0,33.0,-999,-99.99,,,-99.99,,2013-03-05 17:42:00,
2013-03-05 11:53:00,59.0,-99.9,30.16,North,356,27.0,32.0,-999,-99.99,,,-99.99,,2013-03-05 17:53:00,
2013-03-05 12:02:00,60.0,-99.9,30.16,North,1,25.0,30.0,-999,-99.99,,,-99.99,,2013-03-05 18:02:00,
2013-03-05 12:11:00,60.0,-99.9,30.16,North,4,25.0,31.0,-999,-99.99,,,-99.99,,2013-03-05 18:11:00,
2013-03-05 12:22:00,61.0,-99.9,30.17,North,355,29.0,34.0,-999,-99.99,,,-99.99,,2013-03-05 18:22:00,
2013-03-05 12:32:00,62.0,-99.9,30.18,North,359,24.0,30.0,-999,-99.99,,,-99.99,,2013-03-05 18:32:00,
2013-03-05 12:42:00,62.0,-99.9,30.18,North,358,23.0,31.0,-999,-99.99,,,-99.99,,2013-03-05 18:42:00,
2013-03-05 12:53:00,63.0,-99.9,30.17,North,354,23.0,27.0,-999,-99.99,,,-99.99,,2013-03-05 18:53:00,
2013-03-05 13:02:00,63.0,-99.9,30.17,North,350,24.0,28.0,-999,-99.99,,,-99.99,,2013-03-05 19:02:00,
2013-03-05 13:11:00,64.0,-99.9,30.17,North,352,23.0,28.0,-999,-99.99,,,-99.99,,2013-03-05 19:11:00,
2013-03-05 13:22:00,64.0,-99.9,30.17,North,350,22.0,27.0,-999,-99.99,,,-99.99,,2013-03-05 19:22:00,
2013-03-05 13:32:00,64.0,-99.9,30.18,North,353,19.0,27.0,-999,-99.99,,,-99.99,,2013-03-05 19:32:00,
2013-03-05 13:42:00,65.0,-99.9,30.18,North,349,22.0,25.0,-999,-99.99,,,-99.99,,2013-03-05 19:42:00,
2013-03-05 13:52:00,65.0,-99.9,30.17,North,353,20.0,26.0,-999,-99.99,,,-99.99,,2013-03-05 19:52:00,
2013-03-05 14:02:00,66.0,-99.9,30.17,North,350,24.0,30.0,-999,-99.99,,,-99.99,,2013-03-05 20:02:00,
2013-03-05 14:11:00,66.0,-99.9,30.17,North,357,26.0,30.0,-999,-99.99,,,-99.99,,2013-03-05 20:11:00,
2013-03-05 14:22:00,66.0,-99.9,30.17,North,350,24.0,31.0,-999,-99.99,,,-99.99,,2013-03-05 20:22:00,
2013-03-05 14:32:00,66.0,-99.9,30.17,North,349,23.0,29.0,-999,-99.99,,,-99.99,,2013-03-05 20:32:00,
2013-03-05 14:42:00,67.0,-99.9,30.17,North,351,23.0,29.0,-999,-99.99,,,-99.99,,2013-03-05 20:42:00,
2013-03-05 14:52:00,67.0,-99.9,30.17,North,351,24.0,28.0,-999,-99.99,,,-99.99,,2013-03-05 20:52:00,
2013-03-05 15:02:00,67.0,-99.9,30.17,North,352,24.0,29.0,-999,-99.99,,,-99.99,,2013-03-05 21:02:00,
2013-03-05 15:11:00,66.0,-99.9,30.17,North,352,25.0,29.0,-999,-99.99,,,-99.99,,2013-03-05 21:11:00,
2013-03-05 15:22:00,67.0,-99.9,30.17,NNW,340,26.0,32.0,-999,-99.99,,,-99.99,,2013-03-05 21:22:00,
2013-03-05 15:32:00,66.0,-99.9,30.17,North,353,26.0,30.0,-999,-99.99,,,-99.99,,2013-03-05 21:32:00,
2013-03-05 15:42:00,66.0,-99.9,30.17,North,352,26.0,32.0,-999,-99.99,,,-99.99,,2013-03-05 21:42:00,
2013-03-05 15:52:00,66.0,-99.9,30.17,North,355,25.0,30.0,-999,-99.99,,,-99.99,,2013-03-05 21:52:00,
2013-03-05 16:01:00,66.0,-99.9,30.18,North,353,22.0,28.0,-999,-99.99,,,-99.99,,2013-03-05 22:01:00,
2013-03-05 16:12:00,66.0,-99.9,30.18,North,352,24.0,28.0,-999,-99.99,,,-99.99,,2013-03-05 22:12:00,
2013-03-05 16:22:00,66.0,-99.9,30.18,North,356,22.0,26.0,-999,-99.99,,,-99.99,,2013-03-05 22:22:00,
2013-03-05 16:32:00,66.0,-99.9,30.18,NNW,345,22.0,25.0,-999,-99.99,,,-99.99,,2013-03-05 22:32:00,
2013-03-05 16:42:00,66.0,-99.9,30.19,NNW,341,19.0,26.0,-999,-99.99,,,-99.99,,2013-03-05 22:42:00,
2013-03-05 16:52:00,66.0,-99.9,30.19,NNW,345,18.0,22.0,-999,-99.99,,,-99.99,,2013-03-05 22:52:00,
2013-03-05 17:01:00,66.0,-99.9,30.19,NNW,346,16.0,20.0,-999,-99.99,,,-99.99,,2013-03-05 23:01:00,
2013-03-05 17:11:00,66.0,-99.9,30.19,North,351,17.0,19.0,-999,-99.99,,,-99.99,,2013-03-05 23:11:00,
2013-03-05 17:22:00,66.0,-99.9,30.19,North,353,19.0,23.0,-999,-99.99,,,-99.99,,2013-03-05 23:22:00,
2013-03-05 17:32:00,67.0,-99.9,30.19,North,354,16.0,20.0,-999,-99.99,,,-99.99,,2013-03-05 23:32:00,
2013-03-05 17:42:00,67.0,-99.9,30.19,NNW,348,15.0,19.0,-999,-99.99,,,-99.99,,2013-03-05 23:42:00,
2013-03-05 17:53:00,67.0,-99.9,30.19,NNW,347,17.0,21.0,-999,-99.99,,,-99.99,,2013-03-05 23:53:00,
2013-03-05 18:02:00,67.0,-99.9,30.19,North,352,18.0,21.0,-999,-99.99,,,-99.99,,2013-03-06 00:02:00,
2013-03-05 18:11:00,67.0,-99.9,30.20,North,351,15.0,21.0,-999,-99.99,,,-99.99,,2013-03-06 00:11:00,
2013-03-05 18:22:00,66.0,-99.9,30.20,NNW,343,11.0,17.0,-999,-99.99,,,-99.99,,2013-03-06 00:22:00,
2013-03-05 18:32:00,66.0,-99.9,30.21,NNW,346,12.0,15.0,-999,-99.99,,,-99.99,,2013-03-06 00:32:00,
2013-03-05 18:42:00,66.0,-99.9,30.21,NNW,348,13.0,15.0,-999,-99.99,,,-99.99,,2013-03-06 00:42:00,
2013-03-05 18:52:00,65.0,-99.9,30.22,North,352,13.0,19.0,-999,-99.99,,,-99.99,,2013-03-06 00:52:00,
2013-03-05 19:02:00,65.0,-99.9,30.22,NNW,347,13.0,15.0,-999,-99.99,,,-99.99,,2013-03-06 01:02:00,
2013-03-05 19:11:00,65.0,-99.9,30.22,NNW,344,15.0,19.0,-999,-99.99,,,-99.99,,2013-03-06 01:11:00,
2013-03-05 19:22:00,65.0,-99.9,30.22,NNW,345,15.0,18.0,-999,-99.99,,,-99.99,,2013-03-06 01:22:00,
2013-03-05 19:32:00,65.0,-99.9,30.22,NNW,344,14.0,17.0,-999,-99.99,,,-99.99,,2013-03-06 01:32:00,
2013-03-05 19:42:00,64.0,-99.9,30.23,NNW,343,16.0,19.0,-999,-99.99,,,-99.99,,2013-03-06 01:42:00,
2013-03-05 19:52:00,64.0,-99.9,30.23,NNW,347,17.0,21.0,-999,-99.99,,,-99.99,,2013-03-06 01:52:00,
2013-03-05 20:01:00,64.0,-99.9,30.23,North,349,17.0,23.0,-999,-99.99,,,-99.99,,2013-03-06 02:01:00,
2013-03-05 20:11:00,64.0,-99.9,30.23,NNW,347,16.0,21.0,-999,-99.99,,,-99.99,,2013-03-06 02:11:00,
2013-03-05 20:22:00,63.0,-99.9,30.24,North,349,13.0,18.0,-999,-99.99,,,-99.99,,2013-03-06 02:22:00,
2013-03-05 20:32:00,63.0,-99.9,30.25,North,351,12.0,14.0,-999,-99.99,,,-99.99,,2013-03-06 02:32:00,
2013-03-05 20:42:00,63.0,-99.9,30.24,North,349,11.0,13.0,-999,-99.99,,,-99.99,,2013-03-06 02:42:00,
2013-03-05 20:52:00,62.0,-99.9,30.25,North,355,11.0,13.0,-999,-99.99,,,-99.99,,2013-03-06 02:52:00,
2013-03-05 21:02:00,62.0,-99.9,30.25,North,357,12.0,14.0,-999,-99.99,,,-99.99,,2013-03-06 03:02:00,
2013-03-05 21:12:00,62.0,-99.9,30.26,North,356,14.0,15.0,-999,-99.99,,,-99.99,,2013-03-06 03:12:00,
2013-03-05 21:22:00,62.0,-99.9,30.25,North,2,16.0,18.0,-999,-99.99,,,-99.99,,2013-03-06 03:22:00,
2013-03-05 21:32:00,62.0,-99.9,30.26,North,-999,18.0,21.0,-999,-99.99,,,-99.99,,2013-03-06 03:32:00,
2013-03-05 21:42:00,62.0,-99.9,30.26,North,5,19.0,22.0,-999,-99.99,,,-99.99,,2013-03-06 03:42:00,
2013-03-05 21:53:00,61.0,-99.9,30.26,North,3,17.0,19.0,-999,-99.99,,,-99.99,,2013-03-06 03:53:00,
2013-03-05 22:02:00,61.0,-99.9,30.26,North,-999,17.0,20.0,-999,-99.99,,,-99.99,,2013-03-06 04:02:00,
2013-03-05 22:11:00,61.0,-99.9,30.27,North,1,17.0,19.0,-999,-99.99,,,-99.99,,2013-03-06 04:11:00,
2013-03-05 22:22:00,61.0,-99.9,30.27,North,1,16.0,19.0,-999,-99.99,,,-99.99,,2013-03-06 04:22:00,
2013-03-05 22:32:00,60.0,-99.9,30.27,North,358,17.0,19.0,-999,-99.99,,,-99.99,,2013-03-06 04:32:00,
2013-03-05 22:42:00,60.0,-99.9,30.27,North,357,15.0,18.0,-999,-99.99,,,-99.99,,2013-03-06 04:42:00,
2013-03-05 22:52:00,60.0,-99.9,30.28,North,358,16.0,18.0,-999,-99.99,,,-99.99,,2013-03-06 04:52:00,
2013-03-05 23:02:00,60.0,-99.9,30.28,North,2,19.0,22.0,-999,-99.99,,,-99.99,,2013-03-06 05:02:00,
2013-03-05 23:12:00,60.0,-99.9,30.28,North,2,20.0,23.0,-999,-99.99,,,-99.99,,2013-03-06 05:12:00,
2013-03-05 23:23:00,60.0,-99.9,30.28,North,360,18.0,21.0,-999,-99.99,,,-99.99,,2013-03-06 05:23:00,
2013-03-05 23:32:00,60.0,-99.9,30.28,North,3,18.0,21.0,-999,-99.99,,,-99.99,,2013-03-06 05:32:00,
2013-03-05 23:42:00,59.0,-99.9,30.28,North,1,18.0,21.0,-999,-99.99,,,-99.99,,2013-03-06 05:42:00,
2013-03-05 23:52:00,59.0,-99.9,30.28,North,5,17.0,22.0,-999,-99.99,,,-99.99,,2013-03-06 05:52:00,